This is the latest recevied weather packets stored in our database for station/object N6GPM. If no packets are shown the sender has not sent any weather packets the latest 10 day(s).
| Time | Temp. | Humidity | Pressure | Rain* | Wind** | Luminosity | Snow |
|---|---|---|---|---|---|---|---|
| 1777681880 | 24.44° C | 50% | 1015.3 hPa | 0 mm | - | 242 W/m² | - |
| 1777681576 | 25° C | 49% | 1015 hPa | 0 mm | - | 238 W/m² | - |
| 1777681274 | 25° C | 49% | 1014.8 hPa | 0 mm | - | 270 W/m² | - |
| 1777680972 | 25° C | 49% | 1014.9 hPa | 0 mm | - | 304 W/m² | - |
| 1777680669 | 25.56° C | 49% | 1015 hPa | 0 mm | - | 304 W/m² | - |
| 1777680367 | 25.56° C | 47% | 1015.2 hPa | 0 mm | - | 329 W/m² | - |
| 1777680064 | 25° C | 48% | 1014.9 hPa | 0 mm | - | 347 W/m² | - |
| 1777679759 | 25.56° C | 48% | 1014.9 hPa | 0 mm | - | 366 W/m² | - |
| 1777679456 | 25.56° C | 47% | 1015.2 hPa | 0 mm | - | 385 W/m² | - |
| 1777679151 | 25° C | 48% | 1015 hPa | 0 mm | - | 417 W/m² | - |
| 1777678849 | 25° C | 48% | 1015 hPa | 0 mm | - | 424 W/m² | - |
| 1777678547 | 25° C | 50% | 1015.2 hPa | 0 mm | - | 447 W/m² | - |
| 1777678244 | 25.56° C | 48% | 1015 hPa | 0 mm | - | 445 W/m² | - |
| 1777677940 | 25.56° C | 48% | 1015 hPa | 0 mm | - | 463 W/m² | - |
| 1777677638 | 25° C | 49% | 1014.9 hPa | 0 mm | - | 477 W/m² | - |
| 1777677335 | 25° C | 51% | 1015 hPa | 0 mm | - | 491 W/m² | - |
| 1777677033 | 25° C | 51% | 1015 hPa | 0 mm | - | 506 W/m² | - |
| 1777676732 | 25.56° C | 52% | 1015.5 hPa | 0 mm | - | 517 W/m² | - |
| 1777676429 | 25° C | 53% | 1014.9 hPa | 0 mm | - | 520 W/m² | - |
| 1777676127 | 25° C | 52% | 1015.5 hPa | 0 mm | - | 567 W/m² | - |
| 1777675822 | 25.56° C | 53% | 1015.6 hPa | 0 mm | - | 518 W/m² | - |
| 1777675520 | 25° C | 54% | 1015.5 hPa | 0 mm | - | 439 W/m² | - |
| 1777675217 | 25° C | 56% | 1015.6 hPa | 0 mm | - | 437 W/m² | - |
| 1777674914 | 25° C | 55% | 1015.7 hPa | 0 mm | - | 509 W/m² | - |
| 1777674610 | 25° C | 54% | 1015.8 hPa | 0 mm | - | 576 W/m² | - |
* Rain latest hour (hover to see other rain measurements)
** Current wind speed in m/s (hover to see current wind gust speed)